This is the latest recevied weather packets stored in our database for station/object W4SKW. If no packets are shown the sender has not sent any weather packets the latest 10 day(s).
| Time | Temp. | Humidity | Pressure | Rain* | Wind** | Luminosity | Snow |
|---|---|---|---|---|---|---|---|
| 1777334200 | 21.11° C | 76% | 1018.7 hPa | 0 mm | - | 15 W/m² | - |
| 1777333899 | 21.67° C | 74% | 1018.6 hPa | 0 mm | - | 18 W/m² | - |
| 1777333596 | 22.22° C | 64% | 1018.7 hPa | 0 mm | - | 21 W/m² | - |
| 1777333292 | 21.67° C | 71% | 1018.6 hPa | 0 mm | - | 24 W/m² | - |
| 1777332991 | 22.22° C | 66% | 1018.7 hPa | 0 mm | - | 27 W/m² | - |
| 1777332689 | 22.78° C | 66% | 1018.7 hPa | 0 mm | - | 34 W/m² | - |
| 1777332385 | 22.78° C | 66% | 1018.7 hPa | 0 mm | - | 34 W/m² | - |
| 1777332081 | 22.78° C | 72% | 1018.8 hPa | 0 mm | - | 40 W/m² | - |
| 1777331780 | 23.33° C | 69% | 1018.9 hPa | 0 mm | - | 41 W/m² | - |
| 1777331476 | 23.33° C | 70% | 1019 hPa | 0 mm | - | 43 W/m² | - |
| 1777331174 | 23.33° C | 63% | 1018.8 hPa | 0 mm | - | 49 W/m² | - |
| 1777330871 | 23.89° C | 61% | 1018.8 hPa | 0 mm | - | 52 W/m² | - |
| 1777330568 | 23.89° C | 61% | 1018.8 hPa | 0 mm | - | 52 W/m² | - |
| 1777330265 | 24.44° C | 58% | 1018.9 hPa | 0 mm | - | 116 W/m² | - |
| 1777329962 | 25° C | 66% | 1019 hPa | 0 mm | - | 135 W/m² | - |
| 1777329662 | 25° C | 59% | 1018.9 hPa | 0 mm | - | 151 W/m² | - |
| 1777329359 | 25° C | 59% | 1018.9 hPa | 0 mm | - | 168 W/m² | - |
| 1777329056 | 25.56° C | 59% | 1019.1 hPa | 0 mm | - | 185 W/m² | - |
| 1777328754 | 25.56° C | 65% | 1018.8 hPa | 0 mm | - | 186 W/m² | - |
| 1777328451 | 25° C | 64% | 1018.8 hPa | 0 mm | - | 210 W/m² | - |
| 1777328150 | 25.56° C | 61% | 1019 hPa | 0 mm | - | 230 W/m² | - |
| 1777327848 | 25.56° C | 63% | 1019.2 hPa | 0 mm | - | 240 W/m² | - |
| 1777327545 | 25.56° C | 55% | 1019.2 hPa | 0 mm | - | 254 W/m² | - |
| 1777327243 | 25.56° C | 57% | 1019.2 hPa | 0 mm | - | 274 W/m² | - |
| 1777326939 | 25.56° C | 67% | 1019.5 hPa | 0 mm | - | 287 W/m² | - |
* Rain latest hour (hover to see other rain measurements)
** Current wind speed in m/s (hover to see current wind gust speed)